Location: ????? ??????
(37.8317°N, 23.8750°E)
Time: 13:48:16
(UTC+00:00)

CZ-4B R/B - Pass Details

Date: 20 January 2021
Orbit: 387 x 458 km, 97.6° (Epoch: 03 March)

Event Time Altitude Azimuth Distance (km) Brightness Sun altitude
Rises 16:33:06 0° 7° (N) 2,464 4.9 -11.6°
Reaches altitude 10° 16:35:11 10° 4° (N) 1,576 4.0 -12.0°
Maximum altitude 16:38:30 57° 285° (WNW) 523 2.0 -12.6°
Drops below altitude 10° 16:41:45 10° 205° (SSW) 1,544 4.7 -13.2°
Sets 16:43:41 0° 202° (SSW) 2,373 5.6 -13.6°
